Starlink 35592

operational
NORAD ID: 66136 Int'l Des: 2025-237 Owner: SPXS Country: US Constellation: starlink
LEOCIRCULAR

About Starlink 35592

Description loading...

Live Position

Loading 3D Globe...

Upcoming Passes

Altitude History

Altitude vs Time

uPlot chart will show altitude changes over time

Two-Line Element Set

1 66136U 25237Y 25348.54048313 .00048630 00000-0 12177-2 0 9992
2 66136 53.1602 78.6885 0001114 79.9314 280.1817 15.39626616 9521
Epoch: Dec 14, 2025 • Age: 22 hours

Current Status

Altitude 451.7 km
Velocity 7.65 km/s
Sub-Earth Point 48.10°N, 55.18°W
Launch Date Oct 22, 2025
Age 0.1 years
Type internet

Technical Details

Classification Payload
Mass 575.00 kg
Dry Mass 530.00 kg
Total Mass 575.00 kg
Length 0.30 m
Diameter 4.10 m
Span 29.00 m
Shape Box + pan
Manufacturer SPXS
Bus Type Starlink V2MO
Phase Status In Orbit
Owner/State SPXS/US

Large Constellations

Loading constellations...